Ainsworth, NE

8:55 PM CST on February 11, 2016 (GMT -0600)
Ainsworth Municipal

Weather History for KANW - September, 2012

Change the Weather History Date:

Wednesday, September 19, 2012

  Actual Average Record
Temperature  
Mean Temperature 62 °F -  
Max Temperature 74 °F 70 °F 86 °F (2004)
Min Temperature 46 °F 46 °F 33 °F (2003)
Degree Days  
Heating Degree Days 4    
Growing Degree Days 12 (Base 50)    
Moisture  
Dew Point 32 °F    
Average Humidity 34    
Maximum Humidity 55    
Minimum Humidity 17    
Precipitation  
Precipitation 0.00 in - - ()
Sea Level Pressure  
Sea Level Pressure 29.96 in    
Wind  
Wind Speed 11 mph (WNW)    
Max Wind Speed 29 mph    
Max Gust Speed 38 mph    
Visibility 10 miles    
Events      
Averages and records for this station are not official NWS values.
T = Trace of Precipitation, MM = Missing Value Source: NWS Daily Summary

Daily Weather History Graph

Daily Weather History Graph

Search for Another Location

Airport or City:

Trip Planner

Search our weather history database for the weather conditions in past years. The results will help you decide how hot, cold, wet, or windy it might be!

Date:

Astronomy

Sep. 19, 2012 Rise Set
Actual Time 7:24 AM CDT 7:41 PM CDT
Civil Twilight 6:56 AM CDT 8:09 PM CDT
Nautical Twilight 6:23 AM CDT 8:42 PM CDT
Astronomical Twilight 5:49 AM CDT 9:16 PM CDT
Moon 11:43 AM CDT (9/19) 9:45 PM CDT (9/19)
Length of Visible Light 13h 13m
Length of Day
12h 17m
Waxing Crescent, 17% of the Moon is Illuminated
Sep 19
Waxing Crescent
Sep 22
First Quarter
Sep 29
Full
Oct 8
Last Quarter
Oct 15
New

Hourly Weather History & Observations

Time (CDT) Temp. Windchill Dew Point Humidity Pressure Visibility Wind Dir Wind Speed Gust Speed Precip Events Conditions
12:15 AM 56.5 °F - 35.6 °F 46% 29.87 in 10.0 mi SW 5.8 mph - N/A   Clear
12:35 AM 53.6 °F - 35.8 °F 51% 29.88 in 10.0 mi SW 4.6 mph - N/A   Clear
12:55 AM 54.5 °F - 35.8 °F 49% 29.87 in 10.0 mi SW 5.8 mph - N/A   Clear
1:15 AM 55.2 °F - 35.6 °F 48% 29.87 in 10.0 mi WSW 8.1 mph - N/A   Clear
1:35 AM 55.0 °F - 35.8 °F 48% 29.87 in 10.0 mi WSW 9.2 mph - N/A   Clear
1:55 AM 55.0 °F - 35.8 °F 48% 29.87 in 10.0 mi WSW 8.1 mph - N/A   Clear
2:15 AM 54.5 °F - 35.8 °F 49% 29.87 in 10.0 mi WSW 6.9 mph - N/A   Clear
2:35 AM 53.1 °F - 36.0 °F 52% 29.87 in 10.0 mi WSW 5.8 mph - N/A   Clear
2:55 AM 52.5 °F - 36.0 °F 53% 29.87 in 10.0 mi WSW 3.5 mph - N/A   Clear
3:15 AM 51.8 °F - 36.1 °F 55% 29.87 in 10.0 mi WSW 8.1 mph - N/A   Clear
3:35 AM 54.5 °F - 35.8 °F 49% 29.87 in 10.0 mi SW 10.4 mph - N/A   Clear
3:55 AM 54.7 °F - 35.6 °F 49% 29.86 in 10.0 mi SW 10.4 mph - N/A   Clear
4:15 AM 54.0 °F - 35.8 °F 50% 29.87 in 10.0 mi WSW 6.9 mph - N/A   Clear
4:35 AM 55.4 °F - 35.6 °F 47% 29.86 in 10.0 mi WSW 6.9 mph - N/A   Clear
4:55 AM 53.8 °F - 35.8 °F 51% 29.85 in 10.0 mi WSW 5.8 mph - N/A   Clear
5:15 AM 54.9 °F - 36.0 °F 49% 29.85 in 10.0 mi SW 10.4 mph - N/A   Clear
5:35 AM 55.8 °F - 35.8 °F 47% 29.84 in 10.0 mi SW 10.4 mph - N/A   Clear
5:55 AM 59.5 °F - 34.7 °F 39% 29.84 in 10.0 mi SW 13.8 mph - N/A   Clear
6:15 AM 59.0 °F - 34.7 °F 40% 29.84 in 10.0 mi SW 12.7 mph - N/A   Clear
6:35 AM 56.7 °F - 34.7 °F 44% 29.84 in 10.0 mi SW 8.1 mph - N/A   Clear
6:55 AM 55.6 °F - 34.7 °F 45% 29.84 in 10.0 mi SW 9.2 mph - N/A   Clear
7:15 AM 54.9 °F - 34.3 °F 46% 29.84 in 10.0 mi SW 6.9 mph - N/A   Clear
7:35 AM 53.8 °F - 34.2 °F 47% 29.84 in 10.0 mi SW 6.9 mph - N/A   Clear
7:55 AM 55.4 °F - 33.8 °F 44% 29.85 in 10.0 mi WSW 6.9 mph - N/A   Clear
8:15 AM 57.2 °F - 33.8 °F 41% 29.85 in 10.0 mi WSW 8.1 mph - N/A   Clear
8:35 AM 59.2 °F - 33.8 °F 38% 29.86 in 10.0 mi WSW 11.5 mph - N/A   Clear
8:55 AM 61.7 °F - 34.0 °F 35% 29.89 in 10.0 mi WNW 11.5 mph - N/A   Clear
9:15 AM 64.2 °F - 34.0 °F 32% 29.90 in 10.0 mi WNW 12.7 mph 18.4 mph N/A   Clear
9:35 AM 68.0 °F - 32.0 °F 26% 29.92 in 10.0 mi NW 18.4 mph 23.0 mph N/A   Clear
9:55 AM 68.0 °F - 32.9 °F 27% 29.93 in 10.0 mi NNW 17.3 mph 25.3 mph N/A   Clear
10:15 AM 67.3 °F - 33.4 °F 29% 29.95 in 10.0 mi North 21.9 mph 32.2 mph N/A   Clear
10:35 AM 68.4 °F - 34.2 °F 28% 29.96 in 10.0 mi North 18.4 mph 28.8 mph N/A   Clear
10:55 AM 70.0 °F - 34.3 °F 27% 29.97 in 10.0 mi North 21.9 mph 34.5 mph N/A   Clear
11:15 AM 70.9 °F - 34.9 °F 27% 29.99 in 10.0 mi North 28.8 mph 34.5 mph N/A   Clear
11:35 AM 70.5 °F - 35.6 °F 28% 30.00 in 10.0 mi NNW 24.2 mph 34.5 mph N/A   Clear
11:55 AM 71.1 °F - 35.4 °F 27% 30.01 in 10.0 mi NNW 26.5 mph 35.7 mph N/A   Clear
12:15 PM 72.0 °F - 36.1 °F 27% 30.01 in 10.0 mi North 25.3 mph 35.7 mph N/A   Clear
12:35 PM 72.5 °F - 36.1 °F 27% 30.02 in 10.0 mi NNW 26.5 mph 38.0 mph N/A   Clear
12:55 PM 72.5 °F - 36.0 °F 26% 30.02 in 10.0 mi NNW 25.3 mph 35.7 mph N/A   Clear
1:15 PM 72.7 °F - 35.1 °F 25% 30.03 in 10.0 mi NNW 23.0 mph 36.8 mph N/A   Clear
1:35 PM 73.4 °F - 35.2 °F 25% 30.03 in 10.0 mi NNW 19.6 mph 26.5 mph N/A   Clear
1:55 PM 73.4 °F - 34.5 °F 24% 30.04 in 10.0 mi NNW 24.2 mph 27.6 mph N/A   Clear
2:15 PM 73.4 °F - 32.4 °F 22% 30.03 in 10.0 mi NNW 19.6 mph 29.9 mph N/A   Clear
2:35 PM 73.9 °F - 30.4 °F 20% 30.03 in 10.0 mi NW 20.7 mph 34.5 mph N/A   Clear
2:55 PM 73.8 °F - 27.5 °F 18% 30.03 in 10.0 mi NNW 19.6 mph 27.6 mph N/A   Clear
3:15 PM 73.4 °F - 29.1 °F 19% 30.03 in 10.0 mi NW 19.6 mph 32.2 mph N/A   Clear
3:35 PM 73.6 °F - 27.0 °F 18% 30.03 in 10.0 mi NW 26.5 mph 33.4 mph N/A   Clear
3:55 PM 73.0 °F - 26.2 °F 18% 30.03 in 10.0 mi NNW 26.5 mph 32.2 mph N/A   Clear
4:15 PM 73.0 °F - 25.7 °F 17% 30.03 in 10.0 mi NW 18.4 mph 35.7 mph N/A   Clear
4:35 PM 73.4 °F - 25.5 °F 17% 30.03 in 10.0 mi NNW 13.8 mph 32.2 mph N/A   Clear
4:55 PM 73.0 °F - 25.2 °F 17% 30.03 in 10.0 mi NNW 23.0 mph 26.5 mph N/A   Clear
5:15 PM 70.9 °F - 25.9 °F 19% 30.03 in 10.0 mi NNW 20.7 mph 27.6 mph N/A   Clear
5:35 PM 71.4 °F - 26.2 °F 19% 30.03 in 10.0 mi NNW 17.3 mph 25.3 mph N/A   Clear
5:55 PM 70.9 °F - 25.3 °F 18% 30.03 in 10.0 mi NNW 19.6 mph 27.6 mph N/A   Clear
6:15 PM 70.0 °F - 26.8 °F 20% 30.03 in 10.0 mi NNW 17.3 mph 20.7 mph N/A   Clear
6:35 PM 70.2 °F - 27.0 °F 20% 30.03 in 10.0 mi North 17.3 mph - N/A   Clear
6:55 PM 68.7 °F - 25.7 °F 20% 30.04 in 10.0 mi NNW 17.3 mph 23.0 mph N/A   Clear
7:15 PM 67.3 °F - 26.2 °F 21% 30.04 in 10.0 mi NNW 13.8 mph - N/A   Clear
7:35 PM 65.5 °F - 25.9 °F 22% 30.04 in 10.0 mi NNW 10.4 mph 17.3 mph N/A   Clear
7:55 PM 63.1 °F - 26.4 °F 25% 30.05 in 10.0 mi NNW 8.1 mph - N/A   Clear
8:15 PM 62.8 °F - 26.4 °F 25% 30.05 in 10.0 mi NW 6.9 mph - N/A   Clear
8:35 PM 61.7 °F - 26.4 °F 26% 30.06 in 10.0 mi NNW 6.9 mph - N/A   Clear
8:55 PM 59.9 °F - 26.6 °F 28% 30.06 in 10.0 mi NW 3.5 mph - N/A   Clear
9:15 PM 56.7 °F - 27.1 °F 32% 30.07 in 10.0 mi WSW 3.5 mph - N/A   Clear
9:35 PM 55.2 °F - 26.2 °F 33% 30.08 in 10.0 mi West 4.6 mph - N/A   Clear
9:55 PM 51.8 °F - 27.0 °F 38% 30.08 in 10.0 mi North 6.9 mph - N/A   Clear
10:15 PM 51.8 °F - 29.3 °F 42% 30.08 in 10.0 mi North 5.8 mph - N/A   Clear
10:35 PM 50.9 °F - 30.2 °F 45% 30.08 in 10.0 mi North 4.6 mph - N/A   Clear
10:55 PM 50.0 °F - 29.3 °F 45% 30.08 in 10.0 mi Calm Calm - N/A   Clear
11:15 PM 50.0 °F - 28.4 °F 43% 30.08 in 10.0 mi Calm Calm - N/A   Clear
11:35 PM 51.8 °F - 28.4 °F 41% 30.08 in 10.0 mi Calm Calm - N/A   Clear
11:55 PM 46.4 °F 44.3 °F 28.9 °F 51% 30.08 in 10.0 mi SW 4.6 mph - N/A   Clear